Weather in Krasnogorskiy

Russia / Chelyabinsk Oblast     54°36′20″N   61°13′45″E
temp.,
°C
wind,
m/s
gust,
m/s
humid.,
%
clouds,
%
prec.,
mm/h
press.,
hPa
HPBL,
m
21 april, wed
wed2123:00+3nw36580 0.0 1031113
02:00+2nw37600 0.0 1032113
05:00+1nw34640 0.0 103360
08:00+4nnw34550 0.0 1033194
11:00+8nw33430 0.0 1034902
14:00+11nnw22360 0.0 10321185
17:00+12nw013323 0.0 10321256
20:00+10ese224132 0.0 103319
22 april, thu
thu2223:00+7sse334974 0.0 103437
02:00+6s345344 0.0 103446
05:00+5ssw3458100 0.0 103552
08:00+6s3755100 0.0 1036226
11:00+10s6839100 0.0 1036946
14:00+12ssw7835100 0.0 10351352
17:00+13ssw6833100 0.0 10341673
20:00+10s4746100 0.0 1034163
23 april, fri
fri2323:00+8s31054100 0.0 1034219
02:00+8ssw51154100 0.0 1034349
05:00+7s4863100 0.0 1034190
08:00+8sse3766100 0.0 1034316
11:00+12s61050100 0.0 10331732
14:00+11ssw6958100 0.1 10321481
17:00+13ssw3548100 0.1 10311163
20:00+11se2255100 0.0 103012
24 april, sat
sat2423:00+10se3459100 0.0 102961
02:00+9s3759100 0.0 1029220
05:00+8nw1172100 0.1 102712
08:00+9e4762100 0.0 1026512
11:00+11s71045100 0.0 10241645
14:00+11se71042100 0.0 10231358
17:00+11sse8942100 0.0 10211765
20:00+6se61176100 0.4 1021752
25 april, sun
sun2523:00+6ese7156389 0.4 1017518
02:00+7se71353100 0.1 1014593
05:00+7se61053100 0.3 1012431
08:00+7s5888100 0.3 1012488
11:00+7wsw61082100 1.3 1013668
14:00+11wsw8106696 0.1 10141287
17:00+12wsw7116194 0.1 10141235
20:00+10wsw713622 0.2 1016617